Aeroporto :
LOGIN :

Iscrizione | Disclaimer

   EN    FR    IT 

 










Sommario :    VFR   VFR Marginale   IFR   IFR Intensivo   IFR Molto Intensivo
Visibilità : 
Base nubi : 
>= 8 km
>= 3000ft
5 / 8 km
1000 / 3000 ft
1500m / 5 km
500 / 1000 ft
800 / 1500m
200 / 500 ft
< 800m
< 200 ft
Simboli :   Temporali  Nebbia  Neve Forte  Precipitazioni Forti  Vento > 20 kt
SIGMETs :   Varie  Temporali  Ghiacco  Turbolenza  Onda orograficha  Ceneri Vulcaniche







- Altitudine del aeroporto : 681 ft
- Codice IATA : LBA
- Carte del aeroporto


EGNM - Leeds Bradford

ULTIMO METAR :
  • 201820Z 15005KT CAVOK 19/03 Q1028

METARs OBSOLETI :
  • 201750Z 15004KT CAVOK 19/03 Q1028
  • 201720Z 15006KT CAVOK 20/02 Q1029
  • 201650Z 14007KT CAVOK 20/02 Q1029
  • 201620Z 12006KT 090V160 CAVOK 21/03 Q1029
  • 201550Z 15005KT 080V190 CAVOK 21/01 Q1029

TAF TAF EGNM
Valido dal 20 a 18 ore il 21 a 18 ore UTC


201708Z 2018/2118 14004KT CAVOK
TEMPO 2102/2109 8000
ATIS : +44 113 250 9696 (x2489)
Nessun NOTAM noto per questo aeroporto.



MetMap, La meteo Aeronautica in un colpo d'occhio ! - Copyright ORBIFLY Dicembre 2007 - Disclaimer

ORBIFLY MET'MAP TEAM :

Programmazione e sviluppo : Alexandra Zaïnal
Concezione e sviluppo : Baudouin d'Aumeries
Co-Programmazione e sviluppo : Marc-Olivier Méhu
Supporto tecnico e logistico : Manuel Goepfert
Aiuto per la traduzione : Arnaldo La Scala

Contatto : metmap@orbifly.com




FONTI E CREDITI :

   NOAA